When you browse on this site, cookies collect data to enhance your experience and personalize the content and advertising you see.
Visit our Privacy Policy to learn more. By continuing to use the site, you agree to this use of cookies and data.
  • In Schweiz
  • Länderverzeichnis
  • Für 7 Tage
  • Wassertemperatur
  • Wetterkarte
  • Widgets
  • user-avatar
    Anmelden

    Stündliche Wetter Girdovka

    Heute, 24 Februar, Montag

    Zeit Temperatur Niederschläge Wind Luftdruck Luftfeuchtigkeit
    00:00 +1°C° 0 mm 2 m/S 728 mmHg 91%
    01:00 +1°C° 0 mm 2 m/S 728 mmHg 92%
    02:00 -1°C° 0 mm 2 m/S 728 mmHg 94%
    03:00 -1°C° 0 mm 3 m/S 728 mmHg 95%
    04:00 0°C° 0 mm 3 m/S 728 mmHg 95%
    05:00 0°C° 0 mm 3 m/S 728 mmHg 96%
    06:00 -1°C° 0.1 mm 4 m/S 729 mmHg 94%
    07:00 -1°C° 0.1 mm 5 m/S 730 mmHg 91%
    08:00 -1°C° 0.1 mm 5 m/S 730 mmHg 89%
    09:00 -1°C° 0.2 mm 6 m/S 731 mmHg 85%
    10:00 -1°C° 0.2 mm 6 m/S 731 mmHg 81%
    11:00 0°C° 0.2 mm 7 m/S 732 mmHg 77%
    12:00 +2°C° 0 mm 7 m/S 733 mmHg 69%
    13:00 +2°C° 0 mm 7 m/S 734 mmHg 61%
    14:00 +2°C° 0 mm 8 m/S 734 mmHg 54%
    15:00 +2°C° 0 mm 7 m/S 735 mmHg 57%
    16:00 +2°C° 0 mm 5 m/S 735 mmHg 61%
    17:00 +1°C° 0 mm 4 m/S 736 mmHg 65%
    18:00 +1°C° 0 mm 3 m/S 736 mmHg 68%
    19:00 0°C° 0 mm 3 m/S 737 mmHg 72%
    20:00 -1°C° 0 mm 3 m/S 737 mmHg 75%
    21:00 -1°C° 0 mm 3 m/S 737 mmHg 76%
    22:00 -1°C° 0 mm 2 m/S 737 mmHg 78%
    23:00 -2°C° 0 mm 2 m/S 737 mmHg 79%

    Morgen, 25 Februar, Dienstag

    Zeit Temperatur Niederschläge Wind Luftdruck Luftfeuchtigkeit
    00:00 -1°C° 0 mm 2 m/S 737 mmHg 79%
    01:00 -1°C° 0 mm 2 m/S 737 mmHg 79%
    02:00 -1°C° 0 mm 2 m/S 736 mmHg 79%
    03:00 -1°C° 0 mm 2 m/S 736 mmHg 81%
    04:00 -1°C° 0 mm 2 m/S 735 mmHg 84%
    05:00 -1°C° 0 mm 3 m/S 734 mmHg 86%
    06:00 -1°C° 0 mm 3 m/S 734 mmHg 88%
    07:00 -2°C° 0 mm 4 m/S 733 mmHg 90%
    08:00 -2°C° 0 mm 4 m/S 733 mmHg 91%
    09:00 -1°C° 0.1 mm 5 m/S 732 mmHg 92%
    10:00 -1°C° 0.1 mm 5 m/S 731 mmHg 93%
    11:00 -2°C° 0.1 mm 6 m/S 730 mmHg 94%
    12:00 -2°C° 0.3 mm 6 m/S 729 mmHg 95%
    13:00 -2°C° 0.3 mm 6 m/S 728 mmHg 95%
    14:00 0°C° 0.3 mm 5 m/S 728 mmHg 96%
    15:00 0°C° 0.2 mm 5 m/S 727 mmHg 94%
    16:00 +1°C° 0.2 mm 5 m/S 727 mmHg 93%
    17:00 +3°C° 0.2 mm 4 m/S 726 mmHg 92%
    18:00 +3°C° 0.1 mm 4 m/S 726 mmHg 90%
    19:00 +3°C° 0.1 mm 4 m/S 726 mmHg 88%
    20:00 +3°C° 0.1 mm 4 m/S 726 mmHg 86%
    21:00 +2°C° 0 mm 3 m/S 726 mmHg 87%
    22:00 +2°C° 0 mm 3 m/S 726 mmHg 88%
    23:00 +2°C° 0 mm 2 m/S 726 mmHg 88%

    übermorgen, 26 Februar, Mittwoch

    Zeit Temperatur Niederschläge Wind Luftdruck Luftfeuchtigkeit
    00:00 +1°C° 0 mm 3 m/S 726 mmHg 88%
    01:00 +1°C° 0 mm 3 m/S 726 mmHg 89%
    02:00 0°C° 0 mm 4 m/S 726 mmHg 89%
    03:00 0°C° 0 mm 4 m/S 725 mmHg 88%
    04:00 -1°C° 0 mm 4 m/S 725 mmHg 87%
    05:00 -2°C° 0 mm 4 m/S 725 mmHg 86%
    06:00 -2°C° 0 mm 4 m/S 725 mmHg 86%
    07:00 -2°C° 0 mm 4 m/S 725 mmHg 85%
    08:00 -2°C° 0 mm 4 m/S 725 mmHg 84%
    09:00 -1°C° 0 mm 5 m/S 725 mmHg 78%
    10:00 +1°C° 0 mm 5 m/S 726 mmHg 71%
    11:00 +2°C° 0 mm 6 m/S 726 mmHg 65%
    12:00 +3°C° 0 mm 6 m/S 726 mmHg 61%
    13:00 +3°C° 0 mm 6 m/S 726 mmHg 58%
    14:00 +4°C° 0 mm 6 m/S 726 mmHg 54%
    15:00 +3°C° 0 mm 5 m/S 726 mmHg 58%
    16:00 +4°C° 0 mm 4 m/S 726 mmHg 62%
    17:00 +3°C° 0 mm 4 m/S 726 mmHg 65%
    18:00 +3°C° 0 mm 3 m/S 726 mmHg 69%
    19:00 +2°C° 0 mm 3 m/S 726 mmHg 72%
    20:00 +2°C° 0 mm 3 m/S 726 mmHg 75%
    21:00 +1°C° 0 mm 3 m/S 726 mmHg 75%
    22:00 +1°C° 0 mm 3 m/S 726 mmHg 75%
    23:00 +1°C° 0 mm 3 m/S 726 mmHg 75%

    27 Februar, Donnerstag

    Zeit Temperatur Niederschläge Wind Luftdruck Luftfeuchtigkeit
    00:00 +2°C° 0 mm 2 m/S 726 mmHg 77%
    01:00 +2°C° 0 mm 2 m/S 726 mmHg 79%
    02:00 +2°C° 0 mm 2 m/S 725 mmHg 81%
    03:00 +2°C° 0 mm 2 m/S 725 mmHg 84%
    04:00 +1°C° 0 mm 2 m/S 725 mmHg 87%
    05:00 0°C° 0 mm 3 m/S 725 mmHg 91%
    06:00 0°C° 0 mm 3 m/S 725 mmHg 92%
    07:00 -1°C° 0 mm 4 m/S 725 mmHg 93%
    08:00 -2°C° 0 mm 4 m/S 726 mmHg 94%
    09:00 -1°C° 0.1 mm 4 m/S 726 mmHg 90%
    10:00 -1°C° 0.1 mm 5 m/S 727 mmHg 87%
    11:00 -1°C° 0.1 mm 5 m/S 727 mmHg 83%
    12:00 -2°C° 0.1 mm 6 m/S 727 mmHg 79%
    13:00 -2°C° 0.1 mm 6 m/S 728 mmHg 75%
    14:00 -2°C° 0.1 mm 6 m/S 728 mmHg 71%
    15:00 -2°C° 0 mm 6 m/S 729 mmHg 69%
    16:00 -3°C° 0 mm 6 m/S 729 mmHg 68%
    17:00 -3°C° 0 mm 6 m/S 730 mmHg 66%
    18:00 -4°C° 0 mm 5 m/S 730 mmHg 68%
    19:00 -3°C° 0 mm 4 m/S 731 mmHg 70%
    20:00 -4°C° 0 mm 3 m/S 731 mmHg 72%
    21:00 -4°C° 0 mm 3 m/S 731 mmHg 73%
    22:00 -4°C° 0 mm 3 m/S 732 mmHg 73%
    23:00 -5°C° 0 mm 3 m/S 732 mmHg 74%

    28 Februar, Freitag

    Zeit Temperatur Niederschläge Wind Luftdruck Luftfeuchtigkeit
    00:00 -5°C° 0 mm 3 m/S 732 mmHg 74%
    01:00 -5°C° 0 mm 3 m/S 732 mmHg 73%
    02:00 -5°C° 0 mm 3 m/S 732 mmHg 73%
    03:00 -5°C° 0 mm 3 m/S 732 mmHg 73%
    04:00 -5°C° 0 mm 3 m/S 732 mmHg 73%
    05:00 -5°C° 0 mm 3 m/S 732 mmHg 73%
    06:00 -6°C° 0 mm 3 m/S 732 mmHg 73%
    07:00 -6°C° 0 mm 3 m/S 731 mmHg 73%
    08:00 -6°C° 0 mm 3 m/S 731 mmHg 73%
    09:00 -5°C° 0 mm 3 m/S 731 mmHg 64%
    10:00 -4°C° 0 mm 3 m/S 731 mmHg 55%
    11:00 -4°C° 0 mm 3 m/S 731 mmHg 46%
    12:00 -2°C° 0 mm 2 m/S 730 mmHg 44%
    13:00 -2°C° 0 mm 2 m/S 730 mmHg 43%
    14:00 -1°C° 0 mm 2 m/S 729 mmHg 41%
    15:00 -1°C° 0 mm 2 m/S 729 mmHg 45%
    16:00 +1°C° 0 mm 1 m/S 728 mmHg 50%
    17:00 +1°C° 0 mm 1 m/S 728 mmHg 54%
    18:00 -2°C° 0 mm 2 m/S 727 mmHg 60%
    19:00 -2°C° 0 mm 3 m/S 727 mmHg 66%
    20:00 -4°C° 0 mm 3 m/S 726 mmHg 72%
    21:00 -4°C° 0.3 mm 4 m/S 726 mmHg 77%
    22:00 -4°C° 0.3 mm 4 m/S 726 mmHg 83%
    23:00 -6°C° 0.3 mm 5 m/S 726 mmHg 89%

    29 Februar, Samstag

    Zeit Temperatur Niederschläge Wind Luftdruck Luftfeuchtigkeit
    00:00 -6°C° 0.2 mm 5 m/S 726 mmHg 86%
    01:00 -5°C° 0.2 mm 4 m/S 726 mmHg 83%
    02:00 -5°C° 0.2 mm 4 m/S 727 mmHg 81%
    03:00 -5°C° 0 mm 4 m/S 727 mmHg 77%
    04:00 -6°C° 0 mm 3 m/S 728 mmHg 73%
    05:00 -6°C° 0 mm 3 m/S 728 mmHg 69%
    06:00 -6°C° 0 mm 3 m/S 728 mmHg 67%
    07:00 -5°C° 0 mm 2 m/S 729 mmHg 65%
    08:00 -5°C° 0 mm 2 m/S 729 mmHg 63%
    09:00 -2°C° 0 mm 1 m/S 729 mmHg 57%
    10:00 -1°C° 0 mm 1 m/S 729 mmHg 51%
    11:00 -1°C° 0 mm 0 m/S 730 mmHg 45%
    12:00 0°C° 0 mm 1 m/S 729 mmHg 44%
    13:00 0°C° 0 mm 1 m/S 729 mmHg 43%
    14:00 +1°C° 0 mm 1 m/S 728 mmHg 42%
    15:00 -2°C° 0 mm 2 m/S 728 mmHg 49%
    16:00 -2°C° 0 mm 2 m/S 728 mmHg 56%
    17:00 -2°C° 0 mm 3 m/S 727 mmHg 63%
    18:00 -2°C° 0.2 mm 3 m/S 726 mmHg 72%
    19:00 -4°C° 0.2 mm 4 m/S 726 mmHg 82%
    20:00 -5°C° 0.2 mm 5 m/S 725 mmHg 91%
    21:00 -5°C° 0.6 mm 5 m/S 724 mmHg 93%
    22:00 -5°C° 0.6 mm 5 m/S 724 mmHg 94%
    23:00 -5°C° 0.6 mm 6 m/S 723 mmHg 95%
    Mehr zeigen